INMARSAT 5-F1 (39476 NORAD) Tracking and Keplerian Element Data

This shows tracking and keplerian element data for the satellite.

Feedback or suggestion? Click here.




ElementValue
Catalog39476
NameINMARSAT 5-F1
Epoch Orbit4378
Epoch Day354.13565891
Epoch Year2025
RAAN4.7955
Inclination0.0179
Eccentricity3.24E-05
Argument of Perigee162.1876
Mean Anonmoly33.4613
Mean Motion1.00269451
Decay Rate5.2E-07
L11 39476U 13073A 25354.13565891 .00000052 00000+0 00000+0 0 9995
L22 39476 0.0179 4.7955 0000324 162.1876 33.4613 1.00269451 43788



Live tracking and technical data element details for INMARSAT 5-F1 (NORAD 39476). INMARSAT 5-F1 can be tracked NOW for your location showing map with azimuth and elevation plus other details from your city location.







IsCatalogInMostPopularTable: catalog: 39476, numindb: 500
Update: records affected: 1



GetName: 39476 INMARSAT 5-F1

Hit Count: updated at: Sat, 07 Mar 2026 05:25:23 GMT